EW4960 Weather Reports


time (UTC)temp
C
wind
direction
speed
KPH
gust
KPH
rain 1hr
cm
rain 24hr
cm
rain mn
cm
humidity
%
barometer
mb
20260505041535 13 189 0.0 0.0 0.00 0.00 0.00 63 1009.6
20260505040034 13 194 0.0 0.0 0.00 0.00 0.00 62 1009.5
20260505034538 13 202 0.0 0.0 0.00 0.00 0.00 60 1009.4
20260505033033 13 109 0.0 0.0 0.00 0.00 0.00 59 1009.4
20260505031531 14 190 0.0 0.0 0.00 0.00 0.00 58 1009.2
20260505030043 14 166 0.0 0.0 0.00 0.00 0.00 56 1009.3
20260505024530 15 175 0.0 0.0 0.00 0.00 0.00 55 1009.3
20260505023039 15 179 0.0 0.0 0.00 0.00 0.00 54 1009.3
20260505021531 15 153 0.0 0.0 0.00 0.00 0.00 52 1009.4
20260505020028 15 148 0.0 0.0 0.00 0.00 0.00 52 1009.4
20260505014535 15 171 0.0 0.0 0.00 0.00 0.00 51 1009.4
20260505013027 16 140 0.0 0.0 0.00 0.00 0.00 50 1009.1
20260505011526 16 172 0.0 0.0 0.00 0.00 0.00 48 1008.9
20260505010026 16 180 0.0 0.0 0.00 0.00 0.00 48 1008.6
20260505004550 17 119 0.0 0.0 0.00 0.00 0.00 46 1008.3
20260505003024 17 190 0.0 0.0 0.00 0.00 0.00 46 1007.9
20260505001524 17 157 0.0 0.0 0.00 0.00 0.00 45 1007.5
20260505000025 18 134 0.0 0.0 0.00 0.00 0.00 43 1007.2
20260504234522 18 136 0.0 0.0 0.00 0.00 0.00 41 1006.9
20260504233024 19 215 0.0 0.0 0.00 0.00 0.00 39 1006.6
20260504231520 20 200 0.0 0.0 0.00 0.00 0.00 37 1006.3
20260504230020 21 215 0.0 0.0 0.00 0.00 0.00 34 1006.0
20260504224518 22 188 0.0 0.0 0.00 0.00 0.00 30 1005.7
20260504223018 22 166 0.0 0.0 0.00 0.00 0.00 30 1005.6
20260504221517 22 187 0.0 0.0 0.00 0.00 0.00 28 1005.5
20260504220016 22 180 0.0 0.0 0.00 0.00 0.00 29 1005.6
20260504214515 22 202 0.0 0.0 0.00 0.00 0.00 29 1005.6
20260504213031 22 224 0.0 0.0 0.00 0.00 0.00 28 1005.6
20260504211514 22 159 0.0 0.0 0.00 0.00 0.00 28 1005.5
20260504210012 23 229 0.0 0.0 0.00 0.00 0.00 28 1005.5
20260504204511 23 162 0.0 0.0 0.00 0.00 0.00 28 1005.5
20260504203007 22 197 0.0 0.0 0.00 0.00 0.00 27 1005.5
20260504201506 22 182 0.0 0.0 0.00 0.00 0.00 27 1005.7
20260504200006 22 189 0.0 0.0 0.00 0.00 0.00 27 1005.8
20260504194606 22 194 0.0 0.0 0.00 0.00 0.00 27 1005.8
20260504193059 22 184 0.0 0.0 0.00 0.00 0.00 27 1005.8
20260504191618 22 135 0.0 0.0 0.00 0.00 0.00 27 1005.8
20260504190058 21 169 0.0 0.0 0.00 0.00 0.00 28 1005.9
20260504184601 21 193 0.0 0.0 0.00 0.00 0.00 28 1006.2
20260504183049 21 225 0.0 0.0 0.00 0.00 0.00 29 1006.3
20260504181547 21 225 0.0 0.0 0.00 0.00 0.00 28 1006.5
20260504180045 21 205 0.0 0.0 0.00 0.00 0.00 28 1006.7
20260504174543 21 144 0.0 0.0 0.00 0.00 0.00 30 1006.6
20260504173040 20 225 0.0 0.0 0.00 0.00 0.00 31 1007.0
20260504171541 20 186 0.0 0.0 0.00 0.00 0.00 30 1006.8
20260504081516 8 219 0.0 0.0 0.00 0.00 0.00 58 1009.8